Regional Weather Roundup
Issued by NWS

Home | Current Version | Previous Version | Graphics & Text | Print | Product List | Glossary On
Versions: 1 2 3 4 5 6 7 8 9 10 11 12 13 14 15 16 17 18 19 20 21 22 23 24 25 26 27 28 29 30 31 32 33 34 35 36 37 38 39 40 41 42
000
ASUS43 KDMX 251007
RWRIA

WEATHER ROUNDUP FOR IOWA
NATIONAL WEATHER SERVICE DES MOINES IA
400 AM CST THU DEC 25 2014

NOTE: "FAIR" INDICATES FEW OR NO CLOUDS BELOW 12,000 FEET WITH NO
SIGNIFICANT WEATHER AND/OR OBSTRUCTIONS TO VISIBILITY.

* - THESE STATIONS ARE NOT NWS STATIONS...THUS NOT UNDER NWS
QUALITY CONTROL.  THEY ALSO DO NOT REPORT WEATHER SUCH
AS PRECIPITATION OR FOG.

IAZ001>003-012>014-020>022-031>034-043>046-251100-
   NORTHWEST IOWA

CITY           SKY/WX    TMP DP  RH WIND       PRES   REMARKS
CARROLL *      CLEAR     28  28 100 S14       29.65F WCI  17
CHEROKEE *     PTCLDY    28  28 100 S12       29.60F WCI  18
DENISON *      CLEAR     30  28  93 S10G20    29.62F WCI  21
LE MARS *      CLEAR     30  28  93 S14       29.57F WCI  20
ORANGE CITY *  CLEAR     28  25  86 S7        29.56F WCI  21
SHELDON *      PTCLDY    27  27 100 S10       29.56F WCI  17
SIOUX CITY     PTCLDY    30  26  85 SE12      29.59F WCI  20
SPENCER        CLEAR     29  26  89 S13       29.60S WCI  19
STORM LAKE *   CLEAR     27  27 100 S16       29.61F WCI  14
$$

IAZ055>058-069>071-079>083-090>094-251100-
   SOUTHWEST IOWA

CITY           SKY/WX    TMP DP  RH WIND       PRES   REMARKS
ATLANTIC *     CLEAR     30  28  93 S13       29.67F WCI  20
AUDUBON *      CLEAR     28  25  86 S8        29.67F WCI  20
CLARINDA *     CLEAR     32  28  86 S10       29.73F WCI  24
COUNCIL BLFS * CLEAR     30  30 100 S12       29.64F WCI  21
CRESTON *      CLEAR     28  28 100 S14       29.71F WCI  17
HARLAN  *      CLEAR     30  30 100 S8        29.69F WCI  23
LAMONI         CLEAR     28  27  96 S12       29.75F WCI  18
RED OAK *      CLEAR     32  28  86 S12       29.69F WCI  23
SHENANDOAH *   CLEAR     32  28  86 S10       29.71S WCI  24
$$

IAZ047>049-059>061-072>074-084-251100-
   CENTRAL IOWA

CITY           SKY/WX    TMP DP  RH WIND       PRES   REMARKS
AMES           CLEAR     29  26  89 S8        29.72F WCI  21
ANKENY *       CLEAR     30  28  93 S8        29.73F WCI  23
CHARITON *     CLEAR     30  28  93 S10       29.76S WCI  21
DES MOINES     CLEAR     31  27  85 S12       29.73F WCI  22
GRINNELL*      CLOUDY    32  28  86 SW8       29.76F WCI  25
KNOXVILLE *    PTCLDY    30  28  93 S10       29.75F WCI  21
MARSHALLTOWN   CLOUDY    30  28  92 SW10G20   29.74S WCI  21
PELLA *        PTCLDY    32  28  86 S8        29.78F WCI  25
PERRY *          N/A     30  30 100 S10       29.69F WCI  21
$$

IAZ004>006-015-016-023>025-035-036-251100-
   NORTH CENTRAL IOWA

CITY           SKY/WX    TMP DP  RH WIND       PRES   REMARKS
ALGONA *       CLOUDY    30  30 100 S17       29.63F WCI  18
CLARION *      CLOUDY    28  28 100 S12G20    29.66F WCI  18
ESTHERVILLE    CLOUDY    28  27  96 S17       29.60F FOG     WCI  16
FORT DODGE *   PTCLDY    28  25  86 S10G16    29.66F WCI  19
MASON CITY     CLOUDY    29  27  92 S12       29.69S WCI  19
FOREST CITY *  CLOUDY    30  28  93 S14G20    29.66F FOG     WCI  20
IOWA FALLS *   CLOUDY    30  28  93 S14       29.71F WCI  20
$$

IAZ007>011-017>019-026>030-037>042-050>054-066-251100-
   NORTHEAST IOWA

CITY           SKY/WX    TMP DP  RH WIND       PRES   REMARKS
CEDAR RAPIDS   CLOUDY    31  28  89 SW9       29.77S WCI  23
CHARLES CITY * CLOUDY    28  28 100 SW14G21   29.72R WCI  17
CLINTON *      CLOUDY    32  27  80 W10       29.83R WCI  24
DECORAH *      CLOUDY    30  28  93 SW10G16   29.70S WCI  21
DUBUQUE        CLOUDY    30  27  88 SW17      29.76R WCI  18
MONTICELLO *   CLOUDY    32  30  93 SW12      29.78S WCI  23
OELWEIN *      CLOUDY    30  28  93 SW14      29.74S WCI  20
WATERLOO       MIX PCPN  30  28  92 SW12      29.74S WCI  20
$$

IAZ064-065-067-068-078-251100-
   EAST CENTRAL IOWA

CITY           SKY/WX    TMP DP  RH WIND       PRES   REMARKS
DAVENPORT      CLOUDY    32  28  85 SW14      29.81R WCI  22
IOWA CITY      CLOUDY    33  28  81 SW7       29.81F WCI  27
MT. PLEASANT * CLOUDY    32  28  86 SW10      29.83S WCI  24
MUSCATINE *    CLOUDY    34  28  80 SW9       29.83S WCI  26
QUAD CITIES    CLOUDY    33  28  81 SW13      29.81S WCI  24
$$

IAZ062-063-075>077-085>089-095>099-251100-
   SOUTHEAST IOWA

CITY           SKY/WX    TMP DP  RH WIND       PRES   REMARKS
BURLINGTON     CLOUDY    34  29  82 SW9       29.84R WCI  27
FAIRFIELD *    CLOUDY    34  28  80 SW12      29.81S WCI  25
FORT MADISON * CLOUDY    36  30  80 SW8       29.85S WCI  29
KEOKUK *       CLOUDY    36  30  80 SW9       29.84S WCI  29
OSKALOOSA *    MOCLDY    32  28  86 SW7       29.79F WCI  26
CENTERVILLE *  CLEAR     30  30 100 S8        29.80F WCI  23
OTTUMWA        CLOUDY    32  28  85 S8        29.79S WCI  25
WASHINGTON *   CLOUDY    34  32  93 SW12      29.80F WCI  25
$$

ABBREVIATIONS USED IN REMARKS
   TC - TEMPERATURES IN CELSIUS
  WCI - WIND CHILL INDEX
   HX - HEAT INDEX
  VSB - VISIBILITY
$$




USA.gov is the U.S. government's official web portal to all federal, state and local government web resources and services.